Theta_e
327 325 323 314 302 301 297 298 303 303 304 308 308 305 310 309 315 313 354 355 358 361 366 366 363 363 363 364 364 363 362 362 363 362 361 361 361 362 362 362 363 364 361 360 358 358 356 355 354
321 323 318 309 299 294 296 299 300 303 306 307 308 307 305 306 330 338 350 355 358 362 365 364 363 362 362 363 363 363 363 363 363 362 361 361 361 361 361 362 363 363 361 359 356 355 354 354 354
320 321 312 305 298 294 296 299 303 305 306 306 306 308 308 325 334 343 356 357 360 362 364 365 363 362 361 362 362 362 362 362 363 362 361 361 361 361 361 362 363 362 359 357 355 354 353 353 353
316 319 312 301 296 297 297 300 304 304 307 308 306 305 312 339 343 353 359 358 358 360 362 363 362 361 361 362 362 362 362 362 362 361 361 361 361 360 361 362 362 361 360 357 356 354 353 352 351
314 311 302 299 298 300 301 303 304 303 303 305 306 305 307 336 351 355 357 357 357 358 361 361 362 361 361 361 361 361 361 361 361 361 361 361 360 361 361 362 361 361 359 357 354 353 353 353 351
308 308 297 294 296 300 303 305 304 302 303 306 306 305 311 341 346 350 354 356 358 357 361 360 360 361 360 360 360 360 360 360 360 360 360 360 360 360 361 361 361 360 359 356 353 352 352 351 351
304 303 296 296 296 298 302 303 302 301 302 303 307 303 308 326 341 344 351 356 358 359 359 358 358 360 360 359 359 359 359 359 359 359 359 359 360 360 361 361 361 360 358 356 354 352 351 350 349
303 302 294 295 294 295 301 301 302 301 301 307 307 303 304 321 338 343 344 347 356 357 356 358 357 357 356 357 359 358 358 358 358 358 358 359 360 360 360 358 359 357 356 354 353 351 350 349 348
299 296 292 292 293 295 300 299 304 305 303 304 306 306 309 328 340 339 340 335 351 353 354 356 356 355 355 353 357 358 358 358 358 358 358 355 352 356 357 355 357 355 353 352 351 350 349 348 347
299 296 293 296 298 297 300 300 302 300 301 302 304 307 309 319 321 326 335 332 337 343 352 354 354 354 353 351 354 354 354 353 352 352 353 351 354 355 352 355 356 354 353 352 350 348 347 344 343
298 296 297 299 299 300 300 300 303 300 299 302 303 305 308 313 319 319 325 334 337 340 346 352 354 354 354 350 352 351 352 354 354 354 354 353 352 353 351 353 352 353 352 348 347 345 342 341 341
297 299 298 300 302 301 300 302 300 302 303 307 306 307 307 308 312 318 320 325 330 342 349 354 353 352 355 352 350 350 350 352 351 352 353 351 349 353 352 350 350 350 349 347 347 342 342 342 344
297 299 301 303 303 302 303 300 300 301 306 307 307 306 306 308 309 312 321 325 327 333 348 354 354 351 353 353 350 349 349 349 350 352 352 351 350 351 349 348 347 346 347 344 342 341 341 344 346
301 300 301 301 302 302 299 300 299 302 306 305 305 306 307 307 309 310 315 321 329 333 345 355 353 353 351 352 351 350 350 350 350 350 350 351 352 351 347 347 345 347 348 343 342 343 347 349 352
302 297 300 299 300 301 300 297 297 304 306 305 305 308 307 309 310 310 312 317 325 333 342 354 356 354 352 350 351 351 349 349 348 349 351 351 353 352 349 345 345 347 347 346 343 344 346 349 353
298 296 293 299 300 301 300 293 301 306 304 304 306 307 307 310 311 311 312 315 323 329 336 352 355 354 355 352 351 350 349 348 347 349 349 351 352 351 349 346 347 350 348 346 344 345 346 347 349
296 291 292 295 300 300 299 295 301 305 304 304 306 307 307 309 312 313 313 313 316 325 333 344 354 354 355 354 352 350 349 347 347 347 347 349 349 347 347 346 350 353 349 347 346 347 347 345 345
291 291 293 293 298 299 297 296 300 303 303 303 305 306 307 308 310 314 315 314 315 323 335 344 351 355 355 354 354 350 346 345 344 343 344 349 348 347 348 348 349 350 348 347 348 347 345 343 341
294 292 291 295 299 296 296 296 299 302 303 302 304 305 306 308 312 314 315 316 315 323 341 344 346 351 350 348 344 343 340 342 341 342 345 347 346 347 352 349 351 350 348 349 348 344 341 335 337
294 292 292 295 297 296 295 295 299 301 302 304 304 304 306 307 309 312 315 316 316 325 337 343 346 349 345 344 347 347 342 342 342 343 345 346 346 348 350 352 351 351 346 347 344 342 337 335 335
293 292 293 291 296 298 296 294 296 301 303 304 305 306 307 307 308 311 314 316 317 324 336 343 345 350 347 347 349 346 345 343 340 341 343 345 344 347 351 352 351 350 347 343 343 343 342 335 332
290 296 295 294 292 286 296 286 294 298 299 302 304 305 306 307 309 311 313 314 316 320 332 341 345 347 349 348 344 342 341 337 338 340 343 344 345 345 351 353 351 349 345 342 343 343 342 338 331
293 298 294 293 291 290 290 286 291 297 295 299 302 304 306 308 309 309 311 313 315 319 327 338 343 344 344 341 341 341 344 343 340 341 343 347 347 347 349 351 349 345 342 344 343 341 338 334 330
299 294 293 293 290 281 289 288 288 292 296 300 302 304 305 307 308 310 312 314 314 316 322 334 341 341 342 339 341 340 335 338 339 339 340 342 345 345 348 347 346 344 342 338 338 335 332 329 326
295 291 284 282 281 282 290 287 290 296 299 301 302 304 305 306 308 309 310 311 312 313 322 333 338 339 340 341 339 338 338 340 340 341 341 343 341 342 341 341 339 338 334 330 331 328 326 325 323
292 289 283 278 280 283 290 284 290 298 300 302 303 304 305 306 307 308 310 311 312 313 318 328 335 338 341 340 344 345 342 340 343 345 344 342 342 341 340 340 337 330 329 327 327 324 323 324 322
291 287 293 285 287 281 286 290 295 299 299 301 302 303 304 306 308 308 307 309 311 313 315 323 333 337 340 340 343 348 347 346 347 349 346 341 340 341 338 335 328 329 327 326 325 322 322 321 320
294 295 286 286 279 277 284 286 287 293 296 298 300 302 304 307 308 308 310 312 316 316 314 316 326 334 338 341 340 341 346 346 346 346 341 338 336 334 333 329 326 325 325 323 322 320 318 319 316
291 289 289 288 287 281 279 284 296 296 298 298 300 303 304 305 306 307 309 311 313 317 320 314 319 328 335 339 340 339 344 347 341 339 337 336 333 332 328 326 322 322 321 320 319 316 315 314 313
295 292 291 284 283 286 285 284 298 298 300 300 300 301 303 304 304 305 307 309 311 313 318 322 316 324 331 337 339 340 343 345 343 337 334 331 328 329 325 321 318 318 318 318 315 313 311 311 308
Wind_Speed
7 5 1 0 4 2 3 1 2 2 1 3 7 6 5 8 5 8 6 6 9 18 18 19 20 20 19 19 19 22 22 22 20 20 21 23 22 20 19 17 14 14 15 12 12 11 11 10 9
5 1 1 2 3 5 4 1 3 4 7 11 7 3 3 3 8 15 11 5 10 19 17 18 19 19 19 19 19 21 20 21 20 19 19 20 21 20 19 17 14 13 13 13 11 11 11 10 9
1 3 1 2 3 7 2 4 4 6 5 8 7 2 5 7 14 14 14 1 9 16 18 18 20 20 19 19 20 20 20 19 19 20 19 18 18 18 16 16 13 12 14 13 12 9 9 9 9
0 2 4 3 9 2 1 4 4 5 5 7 7 4 4 9 13 13 9 3 11 13 16 19 19 19 19 18 19 20 20 19 19 19 18 18 18 17 16 15 14 12 12 13 12 10 9 8 8
3 1 3 3 5 3 2 2 4 5 3 8 11 7 12 9 13 13 8 3 8 11 12 16 17 19 19 18 17 18 19 19 19 19 19 17 15 15 15 14 13 12 11 12 12 11 8 8 7
3 1 4 9 5 3 3 2 2 4 4 10 9 12 4 5 11 11 9 5 7 9 12 13 14 16 18 17 18 17 16 15 16 17 17 17 15 14 13 13 13 12 10 10 11 11 9 7 7
1 1 1 1 2 2 1 3 0 8 9 8 11 10 4 8 7 7 8 6 8 10 11 11 12 13 15 16 17 17 18 16 14 14 15 15 14 12 11 11 10 10 9 9 9 9 9 8 6
3 1 3 2 2 3 3 10 8 8 10 8 3 4 5 5 2 5 10 7 7 10 9 11 12 13 12 12 14 16 17 17 16 15 12 13 13 11 10 9 8 8 8 8 8 8 8 7 6
1 2 3 2 4 1 7 9 6 8 10 10 7 11 7 1 5 3 5 6 2 7 8 9 11 11 11 11 12 13 16 15 16 14 13 11 10 12 12 6 8 7 7 6 7 7 6 5 5
2 1 2 1 4 5 8 8 11 7 7 9 13 12 8 3 2 4 3 7 2 3 7 8 10 10 11 9 12 11 11 10 11 12 13 10 9 8 8 9 8 6 5 5 5 5 5 5 3
1 2 1 7 4 3 11 13 5 9 8 8 12 10 7 6 4 4 5 5 8 6 5 9 8 11 11 10 9 6 7 7 8 12 12 10 8 8 6 5 6 5 6 4 5 5 4 4 4
5 4 4 5 13 12 14 11 11 15 15 13 11 11 13 11 8 7 9 8 9 11 13 12 11 10 12 8 8 9 8 9 8 10 12 9 7 8 7 5 5 4 3 3 2 3 3 5 5
4 3 7 13 16 14 15 17 18 16 18 15 14 13 14 15 13 11 10 8 9 12 15 19 17 11 11 12 9 9 9 9 10 10 11 9 9 8 7 6 5 4 3 4 4 4 4 4 4
3 10 15 12 12 8 8 12 4 12 12 9 9 11 13 16 19 13 10 11 12 12 15 18 21 19 14 12 12 10 9 10 10 10 10 12 9 8 8 7 6 4 4 4 4 4 3 2 3
7 10 12 5 4 11 3 9 8 9 9 14 12 12 11 11 13 13 14 13 14 13 13 18 18 21 19 14 14 12 10 10 10 10 11 13 11 9 8 7 5 5 5 6 5 5 4 3 3
8 4 11 10 13 6 8 20 9 15 5 11 16 12 11 16 13 11 12 12 12 12 15 16 16 20 20 17 13 11 11 10 10 10 9 13 12 11 8 7 7 6 5 5 5 5 4 4 4
5 15 20 21 6 14 11 19 14 14 18 17 14 15 13 14 14 10 10 11 11 14 15 16 17 21 20 16 14 11 11 9 9 8 9 13 13 12 9 7 7 8 6 6 5 5 5 5 5
23 23 22 24 21 21 24 26 23 21 17 17 16 15 13 13 16 11 11 11 10 10 14 16 16 19 19 14 12 9 9 9 8 8 9 13 11 13 10 7 7 7 6 6 6 7 6 5 5
16 20 25 26 22 25 24 27 25 21 20 19 18 16 16 15 16 13 12 10 7 9 13 17 17 17 13 13 12 10 11 10 9 8 11 12 12 13 11 8 8 7 8 8 9 8 9 6 5
16 20 26 24 18 17 22 29 27 20 25 22 23 22 19 17 15 16 12 11 9 10 12 14 18 17 14 11 12 8 10 9 9 10 11 12 12 13 11 10 9 9 6 10 11 10 7 4 4
14 16 18 19 19 17 20 32 24 21 19 19 21 21 20 19 17 15 14 12 11 9 13 15 17 17 17 17 10 8 8 5 9 11 10 11 13 13 12 11 10 10 8 9 11 10 8 6 3
13 6 9 17 16 13 9 21 18 20 20 17 17 17 17 18 15 15 14 13 14 14 12 14 15 17 12 13 10 13 11 11 8 10 11 11 15 15 14 13 11 10 7 8 8 7 6 5 5
12 10 16 17 18 17 19 14 9 10 14 18 15 12 12 14 15 16 16 15 16 16 13 13 15 14 15 12 11 11 13 10 7 9 11 11 11 14 14 12 11 10 8 9 10 7 6 4 5
9 14 21 14 8 9 18 17 11 8 8 9 3 4 2 6 10 13 14 13 15 15 16 13 16 15 14 13 15 15 14 11 11 11 10 11 9 11 12 12 10 10 10 9 9 8 7 6 6
8 13 7 4 3 7 3 10 14 20 19 14 13 12 5 2 6 9 12 12 13 15 16 13 15 17 15 16 16 16 13 13 13 13 11 12 9 10 10 10 9 9 10 9 10 10 10 9 8
21 8 5 8 6 12 11 11 5 9 12 13 13 8 1 4 6 8 11 11 11 14 12 16 15 16 18 18 21 19 22 13 12 12 11 10 10 11 12 12 13 11 12 12 12 10 9 11 9
2 6 2 7 12 8 7 9 17 8 7 3 8 6 5 7 8 10 5 6 8 9 12 13 15 15 17 18 17 19 19 15 13 15 14 11 10 10 13 12 12 12 13 14 13 11 10 11 9
13 2 5 4 6 7 7 11 11 17 12 2 5 8 8 7 8 8 8 9 8 8 10 10 13 16 15 17 15 14 19 18 14 14 15 15 12 13 15 14 13 12 14 14 14 11 9 13 9
6 4 6 4 6 7 11 8 6 14 12 8 10 5 6 7 9 9 9 9 9 9 9 9 10 14 14 16 15 13 13 17 17 14 14 14 15 16 17 16 12 13 15 15 13 11 13 15 12
14 15 10 6 7 8 10 12 17 18 15 6 5 5 7 8 10 12 11 10 10 10 11 9 9 12 13 13 15 16 19 13 16 16 15 15 15 16 16 15 12 13 14 14 15 13 13 13 13
Wind_Direction
330 341 249 267 213 273 239 222 314 63 349 304 308 254 303 322 278 307 357 213 154 155 159 153 146 143 143 144 145 138 138 142 145 147 149 142 144 146 145 145 145 144 140 140 140 137 133 131 127
327 285 117 108 218 218 207 326 89 355 336 311 311 269 249 314 11 323 353 343 168 149 156 154 149 143 143 142 145 136 138 140 143 146 147 145 146 149 147 145 147 145 143 141 140 138 136 131 125
154 356 217 151 196 228 189 143 17 332 340 4 340 349 350 354 349 332 346 157 162 158 155 152 150 145 144 146 141 138 139 141 142 145 145 145 147 147 144 143 145 147 145 142 137 137 133 131 126
185 151 105 228 223 211 98 131 340 347 358 8 348 316 353 51 344 339 346 150 163 165 155 147 146 144 144 148 142 140 141 142 144 143 144 148 148 147 144 143 145 149 148 144 140 137 129 127 124
46 127 164 215 239 279 249 280 324 23 3 333 343 335 325 18 1 8 12 124 163 161 162 153 143 141 142 145 143 141 143 144 144 144 144 146 148 146 143 143 147 147 149 144 135 131 122 122 121
118 304 204 227 227 246 255 261 237 13 326 321 317 326 322 351 18 25 31 59 151 162 161 156 149 140 140 144 144 142 140 140 142 144 145 145 147 146 143 144 147 146 143 141 134 128 124 117 114
109 176 264 326 300 261 249 324 40 338 310 297 326 306 305 2 12 56 51 79 143 156 157 155 156 142 139 144 145 144 141 141 141 144 145 143 144 143 142 143 142 140 137 131 127 127 126 122 124
85 73 141 194 202 252 302 325 316 299 294 312 290 264 317 358 56 75 70 30 135 154 158 161 156 154 156 152 147 145 142 143 142 143 145 143 139 135 132 131 135 142 135 129 127 125 126 132 140
145 175 178 196 200 281 338 332 317 300 260 274 252 290 320 297 233 279 85 54 115 149 154 155 159 153 156 158 153 144 144 142 140 143 140 142 166 164 158 134 138 146 137 134 128 121 133 140 142
24 267 181 283 310 297 314 308 316 300 287 266 268 267 262 248 272 277 228 132 172 131 154 146 153 152 163 161 159 159 158 165 164 165 164 167 168 169 172 149 147 147 140 143 128 123 136 199 164
90 284 228 285 235 263 301 290 292 284 274 287 293 278 283 260 252 268 260 225 166 181 169 161 152 156 175 165 162 163 167 167 169 171 169 165 165 164 175 161 169 171 171 185 179 162 183 171 194
279 302 271 281 295 288 280 286 273 270 272 278 285 278 292 263 267 262 252 235 207 192 182 167 164 157 176 169 172 169 176 175 173 179 174 169 170 171 171 173 170 182 175 151 185 176 174 191 207
210 283 274 281 278 283 270 260 258 268 268 267 268 269 262 261 276 270 246 234 225 218 210 179 169 161 170 178 174 182 188 186 182 178 179 185 177 173 169 166 177 172 156 160 184 187 190 190 198
270 291 290 286 282 261 277 289 246 244 269 297 286 285 269 265 273 277 248 230 217 221 215 195 178 167 171 178 178 184 193 190 190 183 180 193 185 175 170 169 174 176 178 176 184 184 183 208 236
292 297 311 221 289 312 255 265 237 269 285 293 278 287 277 270 275 264 257 240 216 216 216 200 187 175 169 174 180 187 186 196 194 188 179 194 189 180 174 174 179 176 183 190 185 193 201 204 147
300 267 306 302 302 270 304 284 261 291 276 281 289 286 288 294 282 280 268 250 217 205 213 208 185 181 176 173 180 190 185 195 202 191 177 190 189 182 188 178 176 177 182 190 187 186 187 168 161
263 289 297 302 279 296 270 292 285 277 282 281 275 284 283 288 287 276 273 257 235 213 202 211 196 185 177 175 178 176 181 193 202 200 186 186 188 185 190 196 179 179 185 193 189 187 173 157 141
300 293 289 285 294 284 281 280 282 276 268 265 270 270 272 273 273 279 280 267 249 223 209 199 199 189 178 169 170 166 172 187 197 205 202 184 190 188 185 185 189 186 185 166 158 148 145 144 125
295 289 285 284 285 286 282 278 278 279 272 265 266 261 259 257 265 275 276 270 241 214 196 198 199 189 183 179 175 179 172 188 175 203 203 194 193 191 186 185 190 196 188 160 150 142 138 114 133
293 290 283 283 287 279 284 275 277 276 270 267 263 260 250 251 240 257 252 265 253 199 210 200 205 194 183 188 184 182 181 184 181 191 195 200 195 196 192 188 185 186 166 153 158 158 149 130 193
303 288 294 296 307 280 278 274 275 271 262 262 256 248 248 241 233 237 240 243 258 212 201 202 207 208 196 190 185 138 167 120 176 195 193 194 197 202 200 185 179 176 186 168 164 166 174 162 158
294 302 297 302 305 298 337 286 290 285 275 261 251 242 237 230 228 232 235 241 243 245 207 198 206 207 206 189 181 182 174 187 186 191 189 187 189 198 196 194 182 175 173 157 165 168 175 176 153
289 302 307 299 282 292 259 263 275 286 276 271 266 257 237 238 233 234 234 237 242 246 232 204 196 198 196 184 186 190 184 192 173 182 178 190 182 198 193 189 181 165 170 157 156 155 164 160 143
295 305 304 289 279 256 277 245 287 294 280 303 326 28 287 238 236 240 238 228 235 237 235 211 202 189 192 181 181 185 182 185 181 176 172 181 173 183 194 185 177 159 146 154 136 129 133 108 113
277 323 299 251 212 264 334 305 260 279 279 279 294 324 337 297 278 253 241 230 227 239 228 226 205 194 180 193 186 182 174 193 195 166 174 164 159 171 173 165 153 155 135 137 131 118 114 115 115
288 264 275 297 288 303 294 263 263 278 295 291 296 297 96 28 349 290 261 256 232 234 230 222 214 199 190 186 191 178 180 194 181 175 168 165 170 161 164 164 143 137 139 130 118 109 112 109 103
320 218 303 272 255 267 239 266 283 307 281 333 37 50 73 51 17 8 357 306 290 274 260 225 224 215 200 190 194 192 173 179 177 169 160 155 154 150 154 140 129 154 137 124 120 112 118 105 106
242 106 255 205 273 257 253 271 275 289 284 27 44 69 56 36 9 360 359 355 346 312 282 261 238 225 206 196 182 212 172 167 167 161 154 156 143 144 145 145 141 143 129 120 106 113 110 103 95
268 228 232 276 241 278 281 269 266 276 277 304 346 84 351 339 335 339 338 340 332 329 314 283 247 233 214 197 197 178 201 165 154 156 154 151 143 146 145 144 135 134 126 115 106 106 111 100 99
258 263 257 253 258 249 283 270 267 270 276 302 332 341 341 317 318 317 320 322 320 324 325 322 258 236 224 205 194 171 186 167 167 149 153 143 136 140 137 125 118 125 115 118 115 118 103 107 102